Year,Month,Day,Hour,Minute,Value (Times are PST for temperature in C)
2007,03,27,11,23,9.70
2007,03,27,11,24,9.70
2007,03,27,11,25,9.70
2007,03,27,11,26,9.70
2007,03,27,11,27,9.70
2007,03,27,11,28,9.70
2007,03,27,11,29,9.70
2007,03,27,11,30,9.70
2007,03,27,11,31,9.60
2007,03,27,11,32,9.60
2007,03,27,11,33,9.60
2007,03,27,11,34,9.50
2007,03,27,11,35,9.50
2007,03,27,11,36,9.40
2007,03,27,11,37,9.40
2007,03,27,11,38,9.40
2007,03,27,11,39,9.40
2007,03,27,11,40,9.40
2007,03,27,11,41,9.30
2007,03,27,11,42,9.30
2007,03,27,11,43,9.20
2007,03,27,11,44,9.20
2007,03,27,11,45,9.20
2007,03,27,11,46,9.10
2007,03,27,11,47,9.10
2007,03,27,11,48,9.00
2007,03,27,11,49,9.00
2007,03,27,11,50,9.00
2007,03,27,11,51,9.10
2007,03,27,12,02,8.80
2007,03,27,12,03,8.80
2007,03,27,12,04,8.80
2007,03,27,12,05,8.80
2007,03,27,12,06,8.80
2007,03,27,12,07,8.80
2007,03,27,12,08,8.80
2007,03,27,12,09,8.80
2007,03,27,12,10,8.80
2007,03,27,12,11,8.80
2007,03,27,12,12,9.00
2007,03,27,12,13,9.00
2007,03,27,12,14,9.10
2007,03,27,12,15,9.20
2007,03,27,12,16,9.20
2007,03,27,12,17,9.30
2007,03,27,12,18,9.30
2007,03,27,12,19,9.30
2007,03,27,12,20,9.40
2007,03,27,12,21,9.50
2007,03,27,12,22,9.50
2007,03,27,12,23,9.60
2007,03,27,12,24,9.60
2007,03,27,12,25,9.50
2007,03,27,12,26,9.40
2007,03,27,12,27,9.30
2007,03,27,12,28,9.30
2007,03,27,12,29,9.30
2007,03,27,12,30,9.20
2007,03,27,12,31,9.20
2007,03,27,12,32,9.20
2007,03,27,12,33,9.30
2007,03,27,12,34,9.40
2007,03,27,12,35,9.40
2007,03,27,12,36,9.50
2007,03,27,12,37,9.60
2007,03,27,12,38,9.70
2007,03,27,12,39,9.70
2007,03,27,12,40,9.80
2007,03,27,12,41,9.80
2007,03,27,12,42,9.80
2007,03,27,12,43,9.80
2007,03,27,12,44,9.80
2007,03,27,12,45,9.70
2007,03,27,12,46,9.70
2007,03,27,12,47,9.60
2007,03,27,12,48,9.60
2007,03,27,12,49,9.60
2007,03,27,12,50,9.60
2007,03,27,12,51,9.60
2007,03,27,12,52,9.60
2007,03,27,12,53,9.60
2007,03,27,12,54,9.50
2007,03,27,12,55,9.30
2007,03,27,12,56,9.20
2007,03,27,12,57,9.20
2007,03,27,12,58,9.10
2007,03,27,12,59,9.20
2007,03,27,13,00,9.30
2007,03,27,13,01,9.30
2007,03,27,13,02,9.40
2007,03,27,13,03,9.50
2007,03,27,13,04,9.50
2007,03,27,13,05,9.50
2007,03,27,13,06,9.50
2007,03,27,13,07,9.50
2007,03,27,13,08,9.50
2007,03,27,13,09,9.40
2007,03,27,13,10,9.40
2007,03,27,13,11,9.30
2007,03,27,13,12,9.20
2007,03,27,13,13,9.10
2007,03,27,13,14,9.10
2007,03,27,13,15,9.00
2007,03,27,13,16,8.90
2007,03,27,13,17,8.90
2007,03,27,13,18,9.00
2007,03,27,13,19,9.10
2007,03,27,13,20,9.20
2007,03,27,13,21,9.30
2007,03,27,13,22,9.30
2007,03,27,13,23,9.40
2007,03,27,13,24,9.40
2007,03,27,13,25,9.40
2007,03,27,13,26,9.30
2007,03,27,13,27,9.30
2007,03,27,13,28,9.30
2007,03,27,13,29,9.30
2007,03,27,13,30,9.30
2007,03,27,13,31,9.30
2007,03,27,13,32,9.20
2007,03,27,13,33,9.20
2007,03,27,13,34,9.20
2007,03,27,13,35,9.20
2007,03,27,13,36,9.20
2007,03,27,13,37,9.20
2007,03,27,13,38,9.20
2007,03,27,13,39,9.10
2007,03,27,13,40,9.10
2007,03,27,13,41,9.20
2007,03,27,13,42,9.20
2007,03,27,13,43,9.20
2007,03,27,13,44,9.20
2007,03,27,13,45,9.20
2007,03,27,13,46,9.20
2007,03,27,13,47,9.20
2007,03,27,13,48,9.30
2007,03,27,13,49,9.30
2007,03,27,13,50,9.40
2007,03,27,13,51,9.50
2007,03,27,13,52,9.50
2007,03,27,13,53,9.60
2007,03,27,13,54,9.60
2007,03,27,13,55,9.70
2007,03,27,13,56,9.70
2007,03,27,13,57,9.80
2007,03,27,13,58,9.80
2007,03,27,13,59,9.90
2007,03,27,14,00,9.90
2007,03,27,14,01,9.90
2007,03,27,14,02,9.90
2007,03,27,14,03,9.80
2007,03,27,14,04,9.80
2007,03,27,14,05,9.70
2007,03,27,14,06,9.70
2007,03,27,14,07,9.70
2007,03,27,14,08,9.80
2007,03,27,14,09,9.70
2007,03,27,14,10,9.70
2007,03,27,14,11,9.70
2007,03,27,14,12,9.80
2007,03,27,14,13,9.80
2007,03,27,14,14,9.70
2007,03,27,14,15,9.70
2007,03,27,14,16,9.70
2007,03,27,14,17,9.70
2007,03,27,14,18,9.70
2007,03,27,14,19,9.60
2007,03,27,14,20,9.60
2007,03,27,14,21,9.60
2007,03,27,14,22,9.60
2007,03,27,14,23,9.80
2007,03,27,14,24,9.90
2007,03,27,14,25,10.10
2007,03,27,14,26,10.20
2007,03,27,14,27,10.30
2007,03,27,14,28,10.30
2007,03,27,14,29,10.30
2007,03,27,14,30,10.30
2007,03,27,14,31,10.40
2007,03,27,14,32,10.40
2007,03,27,14,33,10.50
2007,03,27,14,34,10.50
2007,03,27,14,35,10.60
2007,03,27,14,36,10.60
2007,03,27,14,37,10.60
2007,03,27,14,38,10.60
2007,03,27,14,39,10.60
2007,03,27,14,40,10.60
2007,03,27,14,41,10.70
2007,03,27,14,42,10.70
2007,03,27,14,43,10.70
2007,03,27,14,44,10.80
2007,03,27,14,45,10.70
2007,03,27,14,46,10.80
2007,03,27,14,47,10.80
2007,03,27,14,48,10.80
2007,03,27,14,49,10.80
2007,03,27,14,50,10.90
2007,03,27,14,51,11.10
2007,03,27,14,52,11.20
2007,03,27,14,53,11.30
2007,03,27,14,54,11.30
2007,03,27,14,55,11.30
2007,03,27,14,56,11.20
2007,03,27,14,57,11.20
2007,03,27,14,58,11.30
2007,03,27,14,59,11.30
2007,03,27,15,00,11.30
2007,03,27,15,01,11.40
2007,03,27,15,02,11.40
2007,03,27,15,03,11.50
2007,03,27,15,04,11.60
2007,03,27,15,05,11.60
2007,03,27,15,06,11.60
2007,03,27,15,07,11.60
2007,03,27,15,08,11.60
2007,03,27,15,09,11.70
2007,03,27,15,10,11.70
2007,03,27,15,11,11.70
2007,03,27,15,12,11.60
2007,03,27,15,13,11.60
2007,03,27,15,14,11.60
2007,03,27,15,15,11.60
2007,03,27,15,16,11.70
2007,03,27,15,17,11.70
2007,03,27,15,18,11.80
2007,03,27,15,19,11.90
2007,03,27,15,20,12.00
2007,03,27,15,21,12.10
2007,03,27,15,22,12.20
2007,03,27,15,23,12.20
2007,03,27,15,24,12.20
2007,03,27,15,25,12.10
2007,03,27,15,26,11.90
2007,03,27,15,27,11.80
2007,03,27,15,28,11.80
2007,03,27,15,29,11.70
2007,03,27,15,30,11.60
2007,03,27,15,31,11.50
2007,03,27,15,32,11.40
2007,03,27,15,33,11.40
2007,03,27,15,34,11.50
2007,03,27,15,35,11.50
2007,03,27,15,36,11.60
2007,03,27,15,37,11.60
2007,03,27,15,38,11.70
2007,03,27,15,39,11.80
2007,03,27,15,40,11.80
2007,03,27,15,41,11.70
2007,03,27,15,42,11.70
2007,03,27,15,43,11.60
2007,03,27,15,44,11.60
2007,03,27,15,45,11.60
2007,03,27,15,46,11.60
2007,03,27,15,47,11.60
2007,03,27,15,48,11.60
2007,03,27,15,49,11.70
2007,03,27,15,50,11.80
2007,03,27,15,51,11.70
2007,03,27,15,52,11.60
2007,03,27,15,53,11.50
2007,03,27,15,54,11.50
2007,03,27,15,55,11.40
2007,03,27,15,56,11.40
2007,03,27,15,57,11.30
2007,03,27,15,58,11.20
2007,03,27,15,59,11.20
2007,03,27,16,00,11.20
2007,03,27,16,01,11.30
2007,03,27,16,02,11.40
2007,03,27,16,03,11.40
2007,03,27,16,04,11.40
2007,03,27,16,05,11.40
2007,03,27,16,06,11.40
2007,03,27,16,07,11.50
2007,03,27,16,08,11.50
2007,03,27,16,09,11.50
2007,03,27,16,10,11.40
2007,03,27,16,11,11.40
2007,03,27,16,12,11.40
2007,03,27,16,13,11.40
2007,03,27,16,14,11.40
2007,03,27,16,15,11.40
2007,03,27,16,16,11.30
2007,03,27,16,17,11.20
2007,03,27,16,18,11.10
2007,03,27,16,19,11.10
2007,03,27,16,20,11.10
2007,03,27,16,21,11.10
2007,03,27,16,22,11.10
2007,03,27,16,23,11.00
2007,03,27,16,24,11.10
2007,03,27,16,25,11.10
2007,03,27,16,26,11.20
2007,03,27,16,27,11.20
2007,03,27,16,28,11.30
2007,03,27,16,29,11.30
2007,03,27,16,30,11.30
2007,03,27,16,31,11.20
2007,03,27,16,32,11.20
2007,03,27,16,33,11.20
2007,03,27,16,34,11.10
2007,03,27,16,35,11.10
2007,03,27,16,36,11.10
2007,03,27,16,37,11.10
2007,03,27,16,38,11.00
2007,03,27,16,39,11.00
2007,03,27,16,40,10.90
2007,03,27,16,41,10.80
2007,03,27,16,42,10.80
2007,03,27,16,43,10.80
2007,03,27,16,44,10.80
2007,03,27,16,45,10.70
2007,03,27,16,46,10.80
2007,03,27,16,47,10.80
2007,03,27,16,48,10.80
2007,03,27,16,49,10.80
2007,03,27,16,50,10.80
2007,03,27,16,51,10.80
2007,03,27,16,52,10.80
2007,03,27,16,53,10.80
2007,03,27,16,54,10.80
2007,03,27,16,55,10.80
2007,03,27,16,56,10.80
2007,03,27,16,57,10.70
2007,03,27,16,58,10.70
2007,03,27,16,59,10.70
2007,03,27,17,00,10.60
2007,03,27,17,01,10.60
2007,03,27,17,02,10.60
2007,03,27,17,03,10.50
2007,03,27,17,04,10.50
2007,03,27,17,05,10.50
2007,03,27,17,06,10.50
2007,03,27,17,07,10.60
2007,03,27,17,08,10.70
2007,03,27,17,09,10.70
2007,03,27,17,10,10.70
2007,03,27,17,11,10.80
2007,03,27,17,12,10.80
2007,03,27,17,13,10.60
2007,03,27,17,14,10.50
2007,03,27,17,15,10.40
2007,03,27,17,16,10.30
2007,03,27,17,17,10.30
2007,03,27,17,18,10.30
2007,03,27,17,19,10.30
2007,03,27,17,20,10.20
2007,03,27,17,21,10.20
2007,03,27,17,22,10.30
2007,03,27,17,23,10.30
2007,03,27,17,24,10.30
2007,03,27,17,25,10.30
2007,03,27,17,26,10.30
2007,03,27,17,27,10.20
2007,03,27,17,28,10.20
2007,03,27,17,29,10.30
2007,03,27,17,30,10.20
2007,03,27,17,31,10.20
2007,03,27,17,32,10.10
2007,03,27,17,33,10.10
2007,03,27,17,34,10.10
2007,03,27,17,35,10.00
2007,03,27,17,36,10.00
2007,03,27,17,37,10.00
2007,03,27,17,38,9.90
2007,03,27,17,39,9.90
2007,03,27,17,40,9.90
2007,03,27,17,41,9.90
2007,03,27,17,42,9.80
2007,03,27,17,43,9.80
2007,03,27,17,44,9.70
2007,03,27,17,45,9.70
2007,03,27,17,46,9.60
2007,03,27,17,47,9.60
2007,03,27,17,48,9.50
2007,03,27,17,49,9.50
2007,03,27,17,50,9.50
2007,03,27,17,51,9.50
2007,03,27,17,52,9.50
2007,03,27,17,53,9.60
2007,03,27,17,54,9.60
2007,03,27,17,55,9.60
2007,03,27,17,56,9.60
2007,03,27,17,57,9.50
2007,03,27,17,58,9.50
2007,03,27,17,59,9.50
2007,03,27,18,00,9.40
2007,03,27,18,01,9.40
2007,03,27,18,02,9.40
2007,03,27,18,03,9.40
2007,03,27,18,04,9.30
2007,03,27,18,05,9.20
2007,03,27,18,06,9.20
2007,03,27,18,07,9.10
2007,03,27,18,08,9.10
2007,03,27,18,09,9.10
2007,03,27,18,10,9.10
2007,03,27,18,11,9.10
2007,03,27,18,12,9.00
2007,03,27,18,13,9.00
2007,03,27,18,14,9.00
2007,03,27,18,15,9.10
2007,03,27,18,16,9.00
2007,03,27,18,17,9.00
2007,03,27,18,18,8.90
2007,03,27,18,19,8.80
2007,03,27,18,20,8.80
2007,03,27,18,21,8.70
2007,03,27,18,22,8.70
2007,03,27,18,23,8.70
2007,03,27,18,24,8.70
2007,03,27,18,25,8.70
2007,03,27,18,26,8.70
2007,03,27,18,27,8.70
2007,03,27,18,28,8.70
2007,03,27,18,29,8.70
2007,03,27,18,30,8.70
2007,03,27,18,31,8.70
2007,03,27,18,32,8.60
2007,03,27,18,33,8.60
2007,03,27,18,34,8.60
2007,03,27,18,35,8.50
2007,03,27,18,36,8.50
2007,03,27,18,37,8.50
2007,03,27,18,38,8.40
2007,03,27,18,39,8.40
2007,03,27,18,40,8.40
2007,03,27,18,41,8.40
2007,03,27,18,42,8.40
2007,03,27,18,43,8.40
2007,03,27,18,44,8.40
2007,03,27,18,45,8.40
2007,03,27,18,46,8.30
2007,03,27,18,47,8.30
2007,03,27,18,48,8.20
2007,03,27,18,49,8.20
2007,03,27,18,50,8.20
2007,03,27,18,51,8.20
2007,03,27,18,52,8.20
2007,03,27,18,53,8.20
2007,03,27,18,54,8.20
2007,03,27,18,55,8.20
2007,03,27,18,56,8.10
2007,03,27,18,57,8.10
2007,03,27,18,58,8.10
2007,03,27,18,59,8.10
2007,03,27,19,00,8.00
2007,03,27,19,01,7.90
2007,03,27,19,02,7.90
2007,03,27,19,03,7.90
2007,03,27,19,04,7.90
2007,03,27,19,05,7.80
2007,03,27,19,06,7.80
2007,03,27,19,07,7.70
2007,03,27,19,08,7.70
2007,03,27,19,09,7.70
2007,03,27,19,10,7.70
2007,03,27,19,11,7.70
2007,03,27,19,12,7.70
2007,03,27,19,13,7.70
2007,03,27,19,14,7.60
2007,03,27,19,15,7.60
2007,03,27,19,16,7.60
2007,03,27,19,17,7.60
2007,03,27,19,18,7.60
2007,03,27,19,19,7.50
2007,03,27,19,20,7.50
2007,03,27,19,21,7.50
2007,03,27,19,22,7.40
2007,03,27,19,23,7.40
2007,03,27,19,24,7.40
2007,03,27,19,25,7.40
2007,03,27,19,26,7.40
2007,03,27,19,27,7.30
2007,03,27,19,28,7.30
2007,03,27,19,29,7.30
2007,03,27,19,30,7.30
2007,03,27,19,31,7.30
2007,03,27,19,32,7.30
2007,03,27,19,33,7.30
2007,03,27,19,34,7.20
2007,03,27,19,35,7.20
2007,03,27,19,36,7.20
2007,03,27,19,37,7.20
2007,03,27,19,38,7.20
2007,03,27,19,39,7.20
2007,03,27,19,40,7.20
2007,03,27,19,41,7.20
2007,03,27,19,42,7.20
2007,03,27,19,43,7.20
2007,03,27,19,44,7.20
2007,03,27,19,45,7.20
2007,03,27,19,46,7.20
2007,03,27,19,47,7.20
2007,03,27,19,48,7.20
2007,03,27,19,49,7.20
2007,03,27,19,50,7.20
2007,03,27,19,51,7.20
2007,03,27,19,52,7.20
2007,03,27,19,53,7.20
2007,03,27,19,54,7.20
2007,03,27,19,55,7.20
2007,03,27,19,56,7.20
2007,03,27,19,57,7.20
2007,03,27,19,58,7.20
2007,03,27,19,59,7.20
2007,03,27,20,00,7.10
2007,03,27,20,01,7.10
2007,03,27,20,02,7.10
2007,03,27,20,03,7.10
2007,03,27,20,04,7.10
2007,03,27,20,05,7.10
2007,03,27,20,06,7.10
2007,03,27,20,07,7.10
2007,03,27,20,08,7.10
2007,03,27,20,09,7.10
2007,03,27,20,10,7.20
2007,03,27,20,11,7.20
2007,03,27,20,12,7.20
2007,03,27,20,13,7.20
2007,03,27,20,14,7.20
2007,03,27,20,15,7.20
2007,03,27,20,16,7.20
2007,03,27,20,17,7.20
2007,03,27,20,18,7.20
2007,03,27,20,19,7.20
2007,03,27,20,20,7.20
2007,03,27,20,21,7.20
2007,03,27,20,22,7.20
2007,03,27,20,23,7.20
2007,03,27,20,24,7.10
2007,03,27,20,25,7.10
2007,03,27,20,26,7.10
2007,03,27,20,27,7.10
2007,03,27,20,28,7.10
2007,03,27,20,29,7.20
2007,03,27,20,30,7.20
2007,03,27,20,31,7.10
2007,03,27,20,32,7.10
2007,03,27,20,33,7.10
2007,03,27,20,34,7.10
2007,03,27,20,35,7.10
2007,03,27,20,36,7.10
2007,03,27,20,37,7.10
2007,03,27,20,38,7.10
2007,03,27,20,39,7.10
2007,03,27,20,40,7.10
2007,03,27,20,41,7.10
2007,03,27,20,42,7.10
2007,03,27,20,43,7.10
2007,03,27,20,44,7.10
2007,03,27,20,45,7.10
2007,03,27,20,46,7.10
2007,03,27,20,47,7.10
2007,03,27,20,48,7.10
2007,03,27,20,49,7.10
2007,03,27,20,50,7.10
2007,03,27,20,51,7.10
2007,03,27,20,52,7.10
2007,03,27,20,53,7.10
2007,03,27,20,54,7.10
2007,03,27,20,55,7.10
2007,03,27,20,56,7.00
2007,03,27,20,57,7.10
2007,03,27,20,58,7.00
2007,03,27,20,59,7.00
2007,03,27,21,00,7.00
2007,03,27,21,01,7.00
2007,03,27,21,02,7.00
2007,03,27,21,03,6.90
2007,03,27,21,04,6.90
2007,03,27,21,05,6.90
2007,03,27,21,06,6.90
2007,03,27,21,07,6.90
2007,03,27,21,08,6.90
2007,03,27,21,09,6.90
2007,03,27,21,10,6.90
2007,03,27,21,11,6.90
2007,03,27,21,12,6.90
2007,03,27,21,13,6.90
2007,03,27,21,14,7.00
2007,03,27,21,15,7.00
2007,03,27,21,16,7.00
2007,03,27,21,17,7.00
2007,03,27,21,18,7.00
2007,03,27,21,19,7.00
2007,03,27,21,20,7.00
2007,03,27,21,21,7.00
2007,03,27,21,22,7.00
2007,03,27,21,23,7.00
2007,03,27,21,24,7.00
2007,03,27,21,25,7.00
2007,03,27,21,26,7.10
2007,03,27,21,27,7.10
2007,03,27,21,28,7.00
2007,03,27,21,29,7.00
2007,03,27,21,30,7.00
2007,03,27,21,31,7.00
2007,03,27,21,32,7.00
2007,03,27,21,33,7.00
2007,03,27,21,34,7.00
2007,03,27,21,35,7.00
2007,03,27,21,36,7.00
2007,03,27,21,37,7.00
2007,03,27,21,38,7.00
2007,03,27,21,39,7.00
2007,03,27,21,40,7.00
2007,03,27,21,41,7.00
2007,03,27,21,42,7.00
2007,03,27,21,43,7.00
2007,03,27,21,44,7.00
2007,03,27,21,45,6.90
2007,03,27,21,46,6.90
2007,03,27,21,47,6.90
2007,03,27,21,48,6.90
2007,03,27,21,49,6.90
2007,03,27,21,50,6.90
2007,03,27,21,51,6.90
2007,03,27,21,52,7.00
2007,03,27,21,53,7.00
2007,03,27,21,54,7.00
2007,03,27,21,55,7.00
2007,03,27,21,56,7.00
2007,03,27,21,57,7.00
2007,03,27,21,58,7.00
2007,03,27,21,59,7.00
2007,03,27,22,00,7.00
2007,03,27,22,01,7.00
2007,03,27,22,02,6.90
2007,03,27,22,03,6.90
2007,03,27,22,04,6.90
2007,03,27,22,05,6.90
2007,03,27,22,06,6.90
2007,03,27,22,07,6.90
2007,03,27,22,08,6.90
2007,03,27,22,09,6.90
2007,03,27,22,10,6.90
2007,03,27,22,11,6.90
2007,03,27,22,12,6.90
2007,03,27,22,13,6.90
2007,03,27,22,14,6.90
2007,03,27,22,15,6.90
2007,03,27,22,16,6.90
2007,03,27,22,17,6.90
2007,03,27,22,18,6.90
2007,03,27,22,19,6.90
2007,03,27,22,20,6.90
2007,03,27,22,21,6.90
2007,03,27,22,22,6.90
2007,03,27,22,23,6.90
2007,03,27,22,24,6.90
2007,03,27,22,25,6.90
2007,03,27,22,26,6.90
2007,03,27,22,27,6.90
2007,03,27,22,28,6.90
2007,03,27,22,29,7.00
2007,03,27,22,30,6.90
2007,03,27,22,31,6.90
2007,03,27,22,32,6.90
2007,03,27,22,33,6.90
2007,03,27,22,34,6.90
2007,03,27,22,35,6.90
2007,03,27,22,36,6.90
2007,03,27,22,37,6.90
2007,03,27,22,38,6.90
2007,03,27,22,39,6.90
2007,03,27,22,40,6.90
2007,03,27,22,41,6.90
2007,03,27,22,42,6.90
2007,03,27,22,43,6.90
2007,03,27,22,44,6.90
2007,03,27,22,45,6.90
2007,03,27,22,46,6.90
2007,03,27,22,47,6.90
2007,03,27,22,48,6.90
2007,03,27,22,49,6.90
2007,03,27,22,50,6.90
2007,03,27,22,51,6.90
2007,03,27,22,52,6.90
2007,03,27,22,53,6.90
2007,03,27,22,54,6.90
2007,03,27,22,55,6.90
2007,03,27,22,56,6.90
2007,03,27,22,57,6.90
2007,03,27,22,58,6.90
2007,03,27,22,59,6.90
2007,03,27,23,00,6.90
2007,03,27,23,01,6.90
2007,03,27,23,02,6.90
2007,03,27,23,03,6.90
2007,03,27,23,04,6.90
2007,03,27,23,05,6.90
2007,03,27,23,06,6.90
2007,03,27,23,07,6.90
2007,03,27,23,08,6.90
2007,03,27,23,09,6.90
2007,03,27,23,10,6.90
2007,03,27,23,11,6.90
2007,03,27,23,12,6.90
2007,03,27,23,13,6.90
2007,03,27,23,14,6.90
2007,03,27,23,15,6.90
2007,03,27,23,16,6.90
2007,03,27,23,17,6.90
2007,03,27,23,18,6.90
2007,03,27,23,19,6.90
2007,03,27,23,20,6.90
2007,03,27,23,21,6.90
2007,03,27,23,22,6.90
2007,03,27,23,23,6.90
2007,03,27,23,24,6.90
2007,03,27,23,25,6.90
2007,03,27,23,26,6.90
2007,03,27,23,27,6.90
2007,03,27,23,28,6.90
2007,03,27,23,29,6.90
2007,03,27,23,30,6.90
2007,03,27,23,31,6.90
2007,03,27,23,32,6.90
2007,03,27,23,33,6.90
2007,03,27,23,34,6.90
2007,03,27,23,35,6.90
2007,03,27,23,36,6.90
2007,03,27,23,37,6.90
2007,03,27,23,38,6.90
2007,03,27,23,39,6.90
2007,03,27,23,40,6.90
2007,03,27,23,41,6.90
2007,03,27,23,42,6.90
2007,03,27,23,43,6.90
2007,03,27,23,44,6.90
2007,03,27,23,45,6.90
2007,03,27,23,46,6.90
2007,03,27,23,47,6.90
2007,03,27,23,48,6.90
2007,03,27,23,49,6.90
2007,03,27,23,50,6.90
2007,03,27,23,51,6.90
2007,03,27,23,52,6.90
2007,03,27,23,53,6.90
2007,03,27,23,54,6.90
2007,03,27,23,55,6.80
2007,03,27,23,56,6.80
2007,03,27,23,57,6.80
2007,03,27,23,58,6.80
2007,03,27,23,59,6.80
